Regional Weather Roundup
Issued by NWS

Home | Current Version | Previous Version | Graphics & Text | Print | Product List | Glossary On
Versions: 1 2 3 4 5 6 7 8 9 10 11 12 13 14 15 16 17 18 19 20 21 22 23 24 25 26 27 28 29 30 31 32 33 34 35 36 37 38 39 40 41 42 43 44 45 46 47 48 49 50
000
ASUS45 KABQ 020201
RWRNM
WEATHER ROUNDUP FOR NEW MEXICO
NATIONAL WEATHER SERVICE ALBUQUERQUE NM
700 PM MST SUN MAR 01 2015

NOTE: "FAIR" MEANS FEW OR NO CLOUDS BELOW 12,000 FEET AGL WITH NO
       SIGNIFICANT WEATHER OR OBSTRUCTIONS TO VISION.

      THIS PRODUCT IS RELEASED AS TWO VERSIONS.  ONE VERSION NEAR
      THE TOP OF THE HOUR CONTAINING PRELIMINARY DATA FROM ALBUQUERQUE
      AND OTHER STATIONS.  A FINAL VERSION WITH ADDITIONAL DATA IS
      ISSUED ABOUT 10 MINUTES AFTER THE HOUR.

NMZ501-503-504-510>518-020300-
NORTHWEST PLATEAU/NORTHCENTRAL MOUNTAINS

CITY           SKY/WX    TMP DP  RH WIND       PRES   REMARKS
FARMINGTON     CLOUDY    41  36  82 E12       30.06R
SANTA FE       CLOUDY    49  34  56 SE15      30.07S
TAOS           MOCLDY    36  30  80 CALM      30.11S
ANGEL FIRE     CLOUDY    36  31  80 S13       30.15S WCI  28

$$
NMZ402-403-502-505>509-020300-
WESTCENTRAL MOUNTAINS/SOUTHWEST MOUNTAINS

CITY           SKY/WX    TMP DP  RH WIND       PRES   REMARKS
GALLUP         CLOUDY    46  38  73 CALM      30.07R
SILVER CITY    MOCLDY    57  23  26 CALM      30.10R

$$
NMZ407-409-411-412-020300-
SOUTHERN DESERTS

CITY           SKY/WX    TMP DP  RH WIND       PRES   REMARKS
DEMING         MOCLDY    63  23  21 W8        30.04R
HOLLOMAN AFB   PTCLDY    62  22  21 N9        30.04R
ALAMOGORDO     PTCLDY    57  25  28 SE9       30.06S
T OR C         PTCLDY    62  25  24 S7        30.03R

$$
NMZ519>523-020300-
CENTRAL VALLEYS/CENTRAL HIGHLANDS

CITY           SKY/WX    TMP DP  RH WIND       PRES   REMARKS
ALBUQUERQUE    PTCLDY    56  30  37 S15       30.03R
DOUBLE EAGLE   PTCLDY    48  32  53 SE8       30.05R
MORIARTY ARPT  FAIR      42  33  70 SE18G24   30.11R
CLINES CORNERS FOG       30  29  96 E13       30.14R VSB 1/4 WCI  20
BELEN          FAIR      59  27  28 S17       30.03R
SOCORRO        NOT AVBL

$$
NMZ524>526-539-540-020300-
SOUTHCENTRAL MOUNTAINS

CITY           SKY/WX    TMP DP  RH WIND       PRES   REMARKS
RUIDOSO        NOT AVBL

$$
NMZ527>531-020300-
NORTHEAST HIGHLANDS/NORTHEAST PLAINS

CITY           SKY/WX    TMP DP  RH WIND       PRES   REMARKS
LAS VEGAS      FOG       27  27 100 SW3       30.18R VSB 1/4
RATON          CLOUDY    28  28 100 SW13      30.19R FOG     WCI  17
CLAYTON        CLOUDY    27  22  81 NE9       30.25R WCI  18

$$
NMZ532>537-020300-
EASTCENTRAL PLAINS

CITY           SKY/WX    TMP DP  RH WIND       PRES   REMARKS
TUCUMCARI      CLOUDY    31  28  89 NE16      30.27R WCI  20
CANNON AFB     CLOUDY    31  31  96 E8        30.25R WCI  24
CLOVIS AIRPORT CLOUDY    30  28  93 E10       30.26R WCI  21

$$
NMZ028-029-538-020300-
SOUTHEAST PLAINS

CITY           SKY/WX    TMP DP  RH WIND       PRES   REMARKS
ROSWELL        PTCLDY    37  33  85 NW6       30.22R WCI  32
ARTESIA        PTCLDY    37  37 100 N9        30.23R WCI  31
CARLSBAD       MOCLDY    41  35  79 S8        30.21R
HOBBS          CLOUDY    34  34 100 NE9       30.26R FOG     WCI  26


$$



USA.gov is the U.S. government's official web portal to all federal, state and local government web resources and services.